Location: Newark
(43.4306°N, 0.3089°E)
Time: 11:37:40
(UTC+00:00)

A-11 Canister half - Pass Details

Date: 02 September 2019
Orbit: 1513 x 1686 km, 47.2° (Epoch: 18 September)

Event Time Altitude Azimuth Distance (km) Brightness Sun altitude
Rises 22:07:22 0° 294° (WNW) 4,759 12.3 -33.0°
Reaches altitude 10° 22:10:46 10° 286° (WNW) 3,797 11.6 -33.3°
Maximum altitude 22:19:04 34° 226° (SW) 2,456 9.9 -34.1°
Enters shadow 22:19:20 34° 223° (SW) 2,459 9.8 -34.1°
